TimeCDT,TemperatureF,Dew PointF,Humidity,Sea Level PressureIn,VisibilityMPH,Wind Direction,Wind SpeedMPH,Gust SpeedMPH,PrecipitationIn,Events,Conditions,WindDirDegrees,DateUTC
12:53 AM,78.1,69.1,74,29.89,10.0,South,5.8,-,N/A,,Clear,170,2013-06-23 05:53:00
1:53 AM,77.0,69.1,76,29.88,10.0,SSE,8.1,-,N/A,,Clear,150,2013-06-23 06:53:00
2:53 AM,77.0,70.0,79,29.87,10.0,SSE,10.4,18.4,N/A,,Clear,160,2013-06-23 07:53:00
3:53 AM,77.0,70.0,79,29.87,10.0,South,9.2,-,N/A,,Clear,170,2013-06-23 08:53:00
4:53 AM,75.9,71.1,85,29.88,10.0,South,5.8,-,N/A,,Clear,180,2013-06-23 09:53:00
5:53 AM,75.0,71.1,87,29.89,10.0,Variable,3.5,-,N/A,,Clear,0,2013-06-23 10:53:00
6:53 AM,75.9,71.1,85,29.89,10.0,South,8.1,-,N/A,,Clear,170,2013-06-23 11:53:00
7:53 AM,79.0,71.1,77,29.89,10.0,South,9.2,16.1,N/A,,Clear,170,2013-06-23 12:53:00
8:53 AM,82.0,72.0,71,29.88,10.0,South,11.5,20.7,N/A,,Clear,190,2013-06-23 13:53:00
9:53 AM,84.0,72.0,67,29.88,10.0,South,10.4,18.4,N/A,,Clear,190,2013-06-23 14:53:00
10:53 AM,87.1,71.1,59,29.89,10.0,SSW,12.7,21.9,N/A,,Clear,200,2013-06-23 15:53:00
11:53 AM,89.1,70.0,53,29.89,10.0,SSW,13.8,23.0,N/A,,Clear,200,2013-06-23 16:53:00
12:53 PM,89.1,70.0,53,29.90,10.0,SW,15.0,21.9,N/A,,Clear,220,2013-06-23 17:53:00
1:53 PM,91.0,70.0,50,29.90,10.0,South,9.2,19.6,N/A,,Clear,190,2013-06-23 18:53:00
2:53 PM,91.9,66.0,42,29.88,10.0,South,12.7,21.9,N/A,,Clear,190,2013-06-23 19:53:00
3:53 PM,93.0,68.0,44,29.83,10.0,South,18.4,28.8,N/A,,Clear,170,2013-06-23 20:53:00
4:53 PM,91.0,66.9,45,29.82,10.0,South,12.7,32.2,N/A,,Clear,190,2013-06-23 21:53:00
5:53 PM,90.0,69.1,50,29.81,10.0,South,18.4,27.6,N/A,,Clear,170,2013-06-23 22:53:00
6:53 PM,88.0,68.0,51,29.82,10.0,South,10.4,21.9,N/A,,Clear,190,2013-06-23 23:53:00
7:53 PM,86.0,69.1,57,29.83,10.0,SSE,9.2,-,N/A,,Clear,160,2013-06-24 00:53:00
8:53 PM,84.0,69.1,61,29.85,10.0,South,10.4,17.3,N/A,,Clear,180,2013-06-24 01:53:00
9:53 PM,82.0,68.0,62,29.88,10.0,South,6.9,-,N/A,,Clear,180,2013-06-24 02:53:00
10:53 PM,80.1,68.0,67,29.91,10.0,Calm,Calm,-,N/A,,Clear,0,2013-06-24 03:53:00
11:53 PM,77.0,69.1,76,29.92,10.0,SE,4.6,-,N/A,,Clear,140,2013-06-24 04:53:00